Temp
-3 -3 -3 -3 -3 -3 -3 -3 -3 -3 -3 -3 -3 -3 -3 -3 -3 -3 -3 -3 -3 -3 -3 -3 -3 -3 -3 -3 -3 -3 -3 -4 -4 -4 -4 -4 -4 -4 -4 -5 -5 -5 -5 -5 -6 -6 -6 -6 -6 -7 -7 -7 -8 -8 -8 -8 -8 -8 -8 -8 -8 -8 -8
-3 -3 -3 -3 -3 -3 -3 -3 -3 -3 -3 -3 -3 -3 -3 -3 -3 -3 -3 -3 -3 -3 -3 -3 -3 -4 -4 -4 -4 -4 -4 -4 -4 -4 -5 -5 -5 -5 -5 -5 -5 -5 -5 -6 -6 -6 -7 -7 -7 -8 -8 -8 -9 -9 -9 -9 -9 -10 -10 -10 -9 -9 -9
-3 -3 -3 -3 -3 -3 -3 -3 -3 -3 -3 -3 -3 -3 -3 -3 -3 -3 -3 -3 -3 -3 -4 -4 -4 -4 -4 -4 -4 -4 -5 -5 -5 -5 -5 -5 -5 -5 -5 -5 -6 -6 -6 -6 -6 -7 -7 -8 -8 -8 -9 -9 -9 -9 -10 -10 -10 -10 -11 -11 -11 -11 -11
-3 -3 -3 -3 -3 -3 -3 -3 -3 -3 -3 -3 -3 -3 -3 -3 -3 -4 -4 -4 -4 -4 -4 -4 -4 -4 -4 -5 -5 -5 -5 -5 -5 -5 -5 -5 -5 -6 -6 -6 -6 -6 -7 -7 -7 -7 -8 -8 -8 -9 -9 -9 -9 -10 -10 -10 -11 -11 -11 -11 -11 -11 -11
-4 -4 -4 -4 -4 -4 -4 -4 -4 -4 -4 -4 -4 -4 -4 -4 -4 -4 -4 -4 -4 -4 -4 -4 -5 -5 -5 -5 -5 -5 -6 -6 -6 -6 -6 -6 -6 -6 -6 -6 -7 -7 -7 -8 -8 -8 -8 -9 -9 -9 -9 -10 -10 -10 -10 -10 -11 -11 -11 -11 -11 -11 -12
-4 -4 -4 -4 -4 -4 -4 -4 -4 -4 -4 -4 -4 -4 -4 -4 -4 -4 -4 -4 -5 -5 -5 -5 -5 -5 -5 -5 -6 -6 -6 -6 -6 -6 -6 -6 -6 -7 -7 -7 -7 -7 -8 -8 -9 -9 -9 -9 -9 -9 -10 -10 -10 -11 -11 -11 -11 -11 -11 -11 -11 -11 -12
-5 -5 -5 -5 -5 -5 -5 -5 -5 -5 -5 -5 -5 -5 -5 -5 -5 -5 -5 -5 -5 -5 -5 -5 -5 -6 -6 -6 -6 -6 -6 -6 -7 -7 -7 -7 -7 -7 -7 -7 -8 -8 -8 -9 -9 -10 -10 -10 -10 -10 -10 -10 -11 -11 -11 -10 -10 -10 -10 -11 -12 -12 -12
-5 -5 -5 -5 -5 -5 -5 -5 -5 -5 -5 -5 -5 -5 -5 -5 -5 -5 -5 -6 -6 -6 -6 -6 -6 -6 -6 -6 -6 -7 -7 -7 -7 -7 -7 -7 -7 -8 -8 -8 -8 -9 -9 -9 -10 -10 -10 -11 -11 -11 -11 -11 -11 -11 -10 -10 -11 -11 -11 -12 -12 -12 -13
-5 -5 -5 -6 -6 -6 -6 -6 -6 -6 -6 -6 -6 -6 -6 -6 -6 -6 -6 -6 -6 -6 -6 -6 -7 -7 -7 -7 -7 -7 -7 -7 -7 -7 -7 -8 -8 -8 -8 -8 -9 -9 -9 -10 -10 -11 -11 -11 -11 -11 -12 -12 -12 -11 -11 -12 -13 -12 -12 -12 -12 -12 -13
-6 -6 -6 -6 -6 -6 -6 -7 -7 -7 -7 -6 -6 -6 -6 -6 -6 -7 -7 -7 -7 -7 -7 -7 -7 -7 -7 -7 -7 -7 -7 -8 -8 -8 -8 -8 -8 -8 -8 -9 -9 -9 -9 -10 -10 -11 -11 -11 -11 -12 -12 -12 -12 -13 -13 -13 -13 -13 -13 -13 -13 -13 -13
-7 -7 -7 -7 -7 -7 -7 -7 -7 -7 -7 -7 -7 -7 -7 -7 -7 -7 -7 -7 -7 -7 -7 -7 -7 -8 -8 -8 -8 -8 -8 -8 -8 -8 -8 -8 -8 -9 -9 -9 -9 -9 -9 -10 -10 -11 -11 -11 -12 -12 -12 -13 -13 -13 -14 -14 -14 -14 -14 -14 -14 -13 -14
-8 -8 -8 -8 -7 -7 -7 -7 -8 -8 -8 -8 -8 -8 -8 -8 -8 -8 -8 -8 -8 -8 -8 -8 -8 -8 -8 -8 -8 -8 -8 -8 -8 -8 -9 -9 -9 -9 -9 -9 -9 -10 -10 -10 -11 -11 -11 -12 -12 -12 -13 -13 -13 -14 -14 -14 -14 -14 -14 -14 -14 -14 -14
-8 -8 -8 -8 -8 -8 -8 -8 -8 -8 -8 -8 -8 -8 -9 -9 -9 -9 -8 -8 -8 -8 -8 -8 -8 -8 -8 -8 -9 -9 -9 -9 -9 -9 -9 -9 -10 -10 -10 -10 -10 -10 -11 -11 -11 -12 -12 -12 -12 -13 -13 -13 -14 -14 -15 -15 -15 -15 -15 -15 -15 -15 -15
-9 -9 -9 -9 -9 -9 -9 -9 -9 -9 -9 -9 -9 -9 -9 -9 -9 -9 -9 -9 -9 -9 -9 -9 -9 -9 -9 -9 -9 -9 -9 -9 -9 -9 -10 -10 -10 -10 -11 -11 -11 -11 -12 -12 -12 -12 -12 -12 -13 -13 -14 -14 -15 -15 -15 -15 -15 -15 -15 -16 -16 -16 -16
-11 -11 -11 -11 -11 -10 -10 -10 -10 -10 -10 -10 -10 -10 -10 -10 -10 -9 -9 -9 -10 -10 -10 -10 -10 -10 -10 -10 -10 -10 -10 -10 -10 -10 -10 -10 -10 -11 -11 -11 -12 -12 -12 -12 -12 -12 -13 -13 -14 -14 -15 -15 -15 -15 -15 -16 -16 -16 -16 -16 -17 -17 -17
-12 -12 -12 -12 -11 -11 -11 -11 -11 -11 -11 -11 -11 -11 -10 -10 -10 -10 -10 -10 -10 -10 -10 -10 -10 -10 -10 -10 -10 -10 -10 -10 -11 -11 -11 -11 -11 -11 -11 -12 -12 -12 -13 -13 -13 -13 -13 -14 -15 -15 -15 -16 -16 -16 -16 -16 -17 -17 -17 -17 -18 -18 -18
-12 -12 -13 -13 -12 -12 -12 -12 -12 -12 -12 -12 -12 -12 -11 -11 -11 -11 -11 -10 -10 -11 -11 -10 -11 -11 -11 -11 -11 -11 -11 -11 -11 -11 -11 -11 -12 -12 -12 -12 -13 -13 -13 -13 -14 -14 -14 -15 -15 -16 -16 -16 -16 -16 -17 -17 -17 -17 -18 -18 -18 -18 -18
-13 -13 -13 -13 -13 -13 -13 -13 -13 -13 -13 -13 -13 -13 -13 -12 -12 -12 -11 -11 -11 -11 -11 -11 -11 -11 -12 -12 -11 -11 -11 -11 -12 -12 -12 -12 -12 -13 -13 -13 -13 -13 -14 -14 -14 -14 -15 -15 -16 -16 -17 -17 -18 -18 -18 -18 -18 -18 -18 -19 -19 -19 -19
-15 -14 -14 -14 -14 -14 -15 -15 -15 -14 -14 -14 -14 -14 -14 -13 -13 -13 -12 -12 -12 -12 -12 -12 -12 -12 -12 -12 -12 -12 -11 -12 -12 -12 -13 -13 -13 -13 -13 -13 -13 -13 -14 -14 -14 -15 -15 -16 -16 -17 -17 -18 -18 -18 -18 -18 -18 -18 -19 -19 -19 -19 -20
-16 -16 -15 -15 -15 -15 -16 -16 -16 -16 -15 -15 -15 -15 -15 -14 -14 -14 -13 -13 -13 -12 -12 -12 -12 -13 -13 -13 -13 -12 -12 -12 -13 -13 -13 -13 -14 -14 -13 -13 -14 -14 -14 -14 -15 -15 -16 -16 -17 -17 -18 -18 -18 -18 -18 -18 -18 -19 -19 -19 -19 -20 -20
-17 -17 -17 -17 -17 -17 -17 -17 -17 -17 -16 -16 -16 -15 -16 -15 -15 -15 -15 -14 -14 -14 -14 -14 -13 -13 -14 -14 -14 -13 -13 -13 -13 -13 -13 -14 -14 -14 -14 -14 -14 -14 -15 -15 -15 -16 -17 -17 -17 -17 -18 -18 -18 -18 -18 -18 -19 -19 -19 -19 -20 -20 -20
-18 -18 -18 -19 -19 -18 -18 -18 -18 -17 -17 -17 -17 -16 -16 -16 -16 -16 -16 -16 -15 -15 -15 -15 -14 -14 -14 -14 -14 -14 -13 -14 -14 -14 -14 -14 -14 -14 -14 -14 -15 -15 -15 -16 -16 -17 -17 -17 -18 -18 -18 -18 -18 -18 -18 -19 -19 -19 -19 -19 -19 -20 -20
-20 -20 -20 -20 -20 -19 -19 -18 -18 -17 -18 -18 -17 -17 -17 -17 -17 -17 -16 -16 -16 -15 -15 -15 -15 -15 -15 -15 -14 -14 -14 -14 -14 -14 -14 -14 -14 -15 -15 -15 -15 -16 -16 -17 -17 -17 -18 -18 -18 -18 -18 -18 -18 -19 -19 -19 -20 -20 -20 -20 -20 -20 -20
-21 -21 -21 -21 -20 -20 -19 -19 -18 -18 -18 -18 -18 -18 -18 -17 -17 -17 -17 -17 -16 -16 -16 -16 -15 -15 -15 -15 -15 -14 -14 -14 -14 -15 -15 -15 -15 -15 -15 -16 -16 -17 -17 -17 -18 -18 -18 -18 -18 -18 -18 -19 -19 -20 -20 -20 -20 -20 -20 -20 -20 -21 -21
-22 -22 -22 -21 -21 -21 -20 -20 -19 -19 -19 -19 -19 -18 -18 -18 -18 -18 -17 -17 -17 -16 -16 -16 -16 -16 -16 -15 -15 -15 -15 -15 -15 -15 -15 -15 -15 -16 -16 -16 -17 -17 -18 -18 -18 -18 -18 -18 -18 -19 -19 -19 -20 -20 -21 -21 -21 -21 -21 -21 -21 -21 -21
-23 -22 -22 -22 -21 -21 -21 -21 -20 -20 -19 -19 -19 -19 -19 -19 -19 -18 -18 -18 -17 -17 -17 -17 -17 -16 -16 -16 -16 -16 -16 -16 -16 -16 -16 -16 -16 -16 -17 -17 -18 -18 -18 -18 -18 -18 -19 -19 -19 -20 -20 -20 -21 -21 -21 -21 -21 -21 -21 -21 -21 -21 -21
-23 -23 -23 -22 -22 -22 -22 -22 -21 -21 -20 -19 -19 -19 -19 -19 -19 -19 -19 -18 -18 -18 -18 -18 -17 -17 -17 -17 -16 -16 -17 -17 -17 -17 -17 -17 -17 -17 -17 -18 -18 -18 -18 -18 -18 -19 -19 -20 -20 -21 -21 -21 -21 -21 -21 -21 -21 -21 -21 -21 -21 -22 -22
-24 -24 -23 -23 -22 -22 -22 -22 -22 -22 -21 -20 -20 -20 -19 -19 -19 -19 -19 -19 -19 -19 -19 -19 -18 -18 -18 -17 -17 -17 -17 -17 -17 -17 -17 -17 -17 -17 -17 -18 -18 -18 -18 -19 -19 -19 -20 -21 -21 -21 -21 -21 -22 -22 -22 -22 -22 -22 -21 -21 -22 -22 -22
-24 -24 -24 -23 -23 -23 -23 -22 -22 -22 -22 -21 -21 -20 -20 -20 -20 -20 -20 -20 -19 -19 -19 -19 -19 -19 -18 -18 -18 -18 -18 -18 -18 -18 -18 -18 -18 -18 -18 -18 -19 -19 -19 -19 -20 -20 -21 -21 -21 -22 -22 -22 -22 -22 -22 -22 -22 -22 -22 -22 -22 -22 -22
-25 -24 -24 -24 -24 -23 -23 -23 -22 -22 -22 -22 -21 -21 -21 -20 -20 -20 -20 -20 -20 -20 -20 -20 -20 -19 -19 -19 -18 -18 -18 -18 -19 -19 -19 -19 -19 -19 -19 -20 -20 -20 -20 -20 -21 -21 -21 -22 -22 -22 -22 -22 -22 -23 -23 -23 -23 -22 -22 -22 -22 -22 -23
-24 -24 -24 -24 -24 -24 -24 -23 -23 -23 -22 -22 -22 -22 -21 -21 -20 -20 -20 -20 -20 -20 -20 -20 -20 -20 -20 -19 -19 -19 -19 -19 -20 -20 -20 -20 -20 -20 -20 -20 -20 -20 -20 -21 -21 -21 -22 -22 -23 -23 -23 -23 -23 -23 -23 -23 -23 -23 -23 -23 -23 -23 -23
-24 -25 -25 -25 -25 -24 -24 -24 -24 -23 -23 -23 -22 -22 -22 -21 -21 -21 -21 -21 -21 -21 -20 -20 -20 -20 -20 -20 -20 -20 -20 -20 -20 -20 -21 -21 -21 -21 -21 -21 -20 -21 -21 -21 -22 -22 -22 -23 -23 -23 -23 -23 -23 -23 -23 -24 -23 -23 -23 -23 -23 -23 -23
-25 -25 -25 -25 -25 -25 -25 -25 -24 -24 -24 -23 -23 -23 -22 -22 -21 -21 -21 -21 -21 -21 -21 -21 -21 -21 -21 -21 -21 -21 -21 -21 -21 -21 -21 -21 -21 -21 -21 -21 -21 -21 -22 -22 -22 -22 -23 -23 -23 -23 -24 -24 -24 -24 -24 -24 -23 -23 -23 -23 -23 -24 -24
-25 -25 -25 -25 -25 -25 -25 -25 -25 -25 -24 -24 -24 -23 -23 -22 -22 -22 -22 -21 -22 -22 -21 -21 -21 -21 -21 -21 -21 -21 -22 -22 -22 -22 -22 -22 -22 -21 -21 -21 -22 -22 -22 -22 -23 -23 -23 -23 -23 -24 -24 -24 -24 -24 -24 -24 -24 -23 -23 -24 -24 -24 -24
-25 -25 -26 -25 -25 -25 -25 -25 -25 -25 -25 -25 -25 -24 -24 -23 -23 -22 -22 -22 -22 -22 -22 -22 -22 -22 -22 -22 -22 -22 -22 -22 -22 -22 -22 -22 -22 -22 -22 -22 -22 -23 -23 -23 -23 -23 -24 -24 -24 -24 -24 -24 -24 -24 -24 -24 -24 -24 -24 -24 -24 -24 -24
-26 -26 -26 -26 -26 -26 -26 -26 -26 -26 -26 -26 -25 -25 -25 -24 -24 -23 -23 -23 -22 -22 -23 -23 -23 -23 -23 -23 -23 -23 -23 -23 -23 -23 -23 -23 -23 -23 -23 -23 -23 -23 -23 -24 -24 -24 -24 -24 -24 -24 -25 -25 -25 -25 -25 -24 -24 -24 -24 -24 -24 -24 -24
Height
1459 1460 1460 1461 1461 1461 1462 1462 1463 1464 1464 1464 1464 1465 1465 1466 1467 1467 1467 1468 1468 1469 1470 1470 1470 1470 1471 1473 1473 1473 1474 1474 1475 1476 1476 1476 1477 1477 1478 1479 1479 1477 1477 1478 1479 1479 1480 1480 1481 1481 1482 1482 1482 1482 1483 1483 1484 1484 1484 1485 1485 1485 1486
1456 1456 1456 1456 1457 1457 1457 1458 1458 1459 1460 1459 1459 1460 1460 1461 1462 1462 1462 1463 1463 1464 1465 1465 1465 1465 1467 1468 1468 1468 1469 1470 1471 1471 1471 1471 1472 1472 1473 1474 1475 1474 1474 1474 1475 1476 1476 1477 1477 1477 1478 1478 1479 1479 1479 1479 1480 1480 1480 1481 1481 1481 1482
1453 1453 1453 1452 1452 1453 1453 1453 1454 1455 1455 1454 1455 1455 1456 1456 1457 1457 1457 1458 1458 1459 1460 1460 1460 1460 1462 1464 1463 1463 1464 1465 1466 1466 1466 1466 1467 1468 1468 1470 1471 1471 1470 1470 1471 1473 1473 1474 1474 1474 1474 1475 1475 1476 1476 1476 1476 1476 1476 1477 1477 1477 1477
1448 1449 1449 1448 1449 1449 1449 1449 1449 1450 1450 1450 1450 1450 1451 1451 1452 1452 1452 1452 1453 1454 1455 1455 1455 1455 1457 1458 1458 1458 1459 1460 1461 1461 1461 1462 1462 1463 1464 1465 1466 1466 1466 1466 1467 1468 1470 1470 1471 1470 1471 1471 1472 1472 1473 1473 1473 1473 1473 1473 1473 1473 1473
1445 1445 1445 1445 1445 1445 1445 1445 1445 1445 1445 1445 1446 1446 1446 1446 1446 1447 1447 1447 1448 1449 1450 1450 1450 1451 1452 1453 1453 1453 1454 1455 1456 1457 1457 1457 1458 1459 1460 1461 1461 1461 1462 1462 1462 1463 1465 1466 1466 1467 1467 1467 1468 1468 1469 1470 1470 1470 1470 1470 1469 1469 1469
1442 1442 1441 1441 1441 1441 1441 1441 1441 1441 1441 1442 1442 1442 1441 1442 1442 1442 1442 1442 1443 1444 1445 1445 1445 1446 1447 1447 1447 1448 1449 1450 1451 1452 1452 1452 1453 1454 1455 1456 1456 1457 1457 1457 1457 1459 1460 1460 1461 1463 1463 1464 1464 1465 1465 1466 1466 1466 1466 1466 1465 1465 1465
1439 1439 1438 1438 1438 1438 1437 1437 1437 1437 1437 1438 1438 1438 1437 1437 1437 1437 1437 1437 1438 1439 1439 1439 1440 1441 1441 1442 1442 1443 1444 1445 1446 1447 1447 1448 1449 1450 1450 1451 1451 1452 1452 1452 1453 1454 1454 1455 1457 1458 1459 1460 1460 1461 1461 1461 1462 1461 1461 1461 1461 1460 1460
1435 1435 1435 1434 1434 1434 1434 1434 1434 1434 1434 1433 1434 1434 1433 1433 1433 1433 1433 1433 1433 1434 1434 1434 1435 1435 1436 1436 1437 1438 1440 1440 1441 1442 1442 1443 1444 1445 1445 1446 1446 1447 1447 1448 1448 1449 1450 1451 1452 1453 1453 1455 1456 1456 1456 1457 1457 1456 1456 1456 1456 1455 1455
1431 1431 1431 1431 1431 1430 1430 1430 1430 1430 1430 1429 1429 1429 1429 1429 1429 1429 1429 1428 1428 1428 1429 1429 1429 1430 1430 1431 1432 1433 1434 1435 1436 1437 1437 1438 1439 1440 1441 1441 1442 1442 1442 1443 1443 1444 1445 1446 1447 1447 1448 1449 1451 1452 1453 1454 1453 1451 1451 1451 1450 1450 1451
1429 1428 1428 1427 1427 1427 1427 1426 1426 1426 1426 1426 1425 1425 1425 1424 1424 1424 1424 1424 1423 1423 1423 1424 1424 1425 1425 1426 1427 1428 1429 1430 1430 1431 1432 1433 1434 1435 1436 1436 1436 1437 1437 1438 1438 1439 1440 1441 1441 1442 1444 1446 1447 1448 1449 1449 1448 1447 1447 1447 1446 1445 1446
1426 1425 1425 1424 1424 1424 1423 1423 1423 1422 1422 1422 1421 1421 1421 1420 1420 1420 1419 1419 1418 1418 1418 1419 1419 1420 1420 1421 1421 1422 1423 1424 1425 1425 1426 1427 1428 1429 1430 1431 1431 1432 1433 1433 1434 1435 1436 1436 1437 1439 1441 1442 1443 1444 1444 1444 1444 1443 1443 1443 1442 1441 1441
1423 1422 1421 1421 1420 1420 1420 1419 1419 1418 1418 1417 1417 1417 1416 1416 1415 1415 1414 1414 1414 1413 1414 1414 1414 1414 1415 1415 1416 1417 1418 1419 1419 1420 1421 1422 1422 1423 1424 1425 1426 1427 1428 1429 1430 1431 1431 1432 1434 1436 1437 1438 1439 1440 1440 1440 1439 1439 1439 1438 1438 1437 1437
1419 1419 1418 1417 1416 1416 1416 1416 1415 1415 1414 1413 1413 1412 1412 1411 1410 1409 1409 1409 1409 1409 1409 1409 1409 1409 1409 1410 1411 1412 1413 1413 1414 1415 1416 1416 1417 1418 1419 1420 1421 1422 1424 1425 1426 1427 1427 1429 1431 1432 1433 1435 1435 1435 1435 1435 1435 1435 1435 1434 1433 1433 1433
1415 1415 1414 1413 1413 1412 1412 1412 1411 1411 1410 1409 1408 1408 1407 1406 1405 1404 1404 1403 1403 1403 1403 1404 1404 1403 1403 1404 1405 1406 1407 1408 1409 1410 1410 1411 1411 1412 1413 1414 1416 1417 1419 1420 1421 1422 1423 1425 1427 1428 1429 1430 1431 1430 1430 1430 1430 1431 1430 1429 1429 1429 1429
1411 1411 1410 1409 1408 1407 1407 1407 1407 1406 1405 1405 1404 1403 1402 1401 1401 1400 1399 1398 1398 1398 1398 1398 1399 1398 1398 1399 1400 1401 1402 1403 1404 1405 1405 1405 1406 1407 1408 1409 1410 1412 1414 1415 1416 1418 1420 1422 1423 1424 1425 1425 1426 1426 1426 1426 1426 1426 1426 1425 1424 1424 1424
1407 1407 1405 1405 1404 1403 1402 1402 1403 1402 1401 1400 1400 1399 1398 1397 1396 1395 1394 1393 1393 1393 1393 1393 1393 1393 1393 1393 1394 1395 1397 1398 1399 1400 1400 1400 1401 1402 1403 1404 1406 1408 1409 1411 1413 1415 1417 1418 1419 1420 1420 1421 1422 1422 1422 1423 1422 1421 1421 1421 1420 1419 1419
1403 1403 1402 1401 1400 1399 1398 1397 1398 1398 1397 1396 1395 1394 1393 1392 1391 1390 1389 1389 1389 1388 1388 1388 1388 1388 1388 1389 1389 1390 1392 1393 1394 1395 1395 1396 1396 1397 1399 1400 1402 1404 1406 1408 1410 1411 1413 1414 1415 1415 1416 1417 1417 1418 1418 1419 1417 1417 1418 1418 1416 1415 1416
1399 1398 1398 1397 1396 1395 1394 1393 1393 1393 1392 1392 1391 1390 1389 1387 1386 1385 1384 1384 1384 1384 1383 1383 1383 1384 1384 1384 1385 1386 1387 1389 1389 1390 1390 1391 1392 1393 1394 1395 1398 1400 1402 1404 1405 1407 1408 1409 1410 1411 1412 1413 1414 1414 1414 1414 1413 1414 1415 1414 1413 1412 1413
1395 1394 1393 1393 1392 1391 1390 1389 1388 1388 1388 1387 1387 1386 1384 1383 1381 1380 1380 1379 1379 1379 1379 1378 1378 1379 1379 1380 1381 1382 1383 1384 1384 1385 1386 1387 1388 1388 1389 1391 1394 1396 1398 1400 1401 1402 1404 1405 1407 1408 1409 1410 1411 1411 1412 1411 1410 1411 1411 1409 1409 1409 1410
1392 1390 1389 1389 1388 1388 1387 1386 1385 1384 1384 1383 1383 1382 1381 1379 1377 1376 1375 1375 1375 1374 1374 1373 1374 1374 1375 1376 1377 1378 1379 1380 1380 1381 1382 1383 1383 1384 1386 1388 1391 1393 1395 1396 1398 1399 1401 1402 1403 1404 1405 1406 1407 1407 1408 1408 1408 1407 1407 1406 1406 1406 1406
1388 1387 1386 1385 1385 1384 1384 1383 1382 1381 1381 1380 1379 1378 1377 1375 1374 1373 1372 1371 1370 1370 1369 1369 1369 1370 1371 1372 1373 1374 1375 1376 1376 1377 1378 1378 1379 1381 1383 1385 1387 1389 1391 1393 1394 1396 1397 1398 1399 1400 1401 1402 1403 1403 1404 1404 1404 1404 1404 1403 1402 1402 1402
1385 1384 1383 1382 1381 1381 1380 1380 1379 1378 1377 1377 1376 1375 1374 1372 1371 1370 1369 1368 1367 1366 1365 1365 1366 1367 1368 1369 1369 1370 1372 1373 1374 1373 1374 1375 1377 1379 1380 1382 1384 1386 1388 1389 1391 1392 1393 1394 1395 1396 1397 1398 1398 1399 1399 1400 1400 1400 1400 1399 1399 1399 1398
1383 1382 1380 1379 1378 1377 1377 1376 1376 1375 1374 1373 1372 1371 1371 1369 1368 1367 1366 1364 1363 1363 1362 1363 1363 1363 1365 1365 1366 1367 1368 1370 1371 1370 1370 1371 1374 1376 1377 1379 1381 1382 1384 1385 1387 1388 1388 1390 1391 1392 1393 1393 1394 1395 1395 1396 1396 1396 1396 1395 1395 1395 1395
1380 1378 1376 1375 1374 1373 1373 1372 1372 1371 1370 1369 1369 1368 1367 1366 1365 1364 1363 1361 1360 1360 1359 1360 1360 1360 1361 1362 1363 1364 1365 1366 1367 1367 1368 1369 1371 1373 1374 1376 1377 1378 1380 1381 1382 1383 1384 1385 1387 1388 1389 1389 1390 1391 1392 1392 1392 1392 1392 1392 1391 1391 1392
1376 1375 1373 1372 1371 1369 1369 1369 1368 1367 1367 1366 1365 1364 1364 1363 1362 1361 1360 1358 1357 1357 1357 1357 1357 1357 1358 1358 1359 1360 1361 1362 1364 1365 1365 1367 1368 1369 1370 1372 1373 1375 1376 1377 1378 1379 1380 1381 1382 1384 1385 1385 1386 1387 1387 1388 1388 1389 1389 1389 1389 1389 1389
1373 1372 1371 1370 1368 1367 1366 1365 1364 1363 1363 1363 1362 1361 1360 1360 1359 1358 1357 1356 1355 1354 1354 1354 1354 1354 1355 1355 1356 1357 1358 1359 1361 1362 1363 1364 1365 1366 1367 1369 1370 1372 1373 1374 1375 1376 1377 1378 1379 1380 1381 1381 1382 1382 1383 1384 1385 1385 1385 1386 1386 1386 1386
1371 1370 1369 1367 1366 1365 1363 1362 1361 1360 1359 1359 1358 1358 1357 1357 1356 1355 1355 1353 1352 1351 1351 1351 1352 1352 1353 1353 1354 1355 1356 1357 1358 1360 1361 1362 1363 1364 1365 1367 1368 1370 1371 1372 1373 1373 1374 1375 1375 1376 1376 1377 1378 1378 1379 1380 1381 1381 1381 1382 1382 1383 1383
1369 1368 1367 1366 1364 1362 1360 1359 1359 1358 1357 1356 1355 1354 1354 1354 1353 1353 1352 1351 1350 1349 1349 1349 1349 1350 1350 1351 1352 1353 1354 1355 1356 1357 1359 1360 1361 1362 1364 1365 1366 1367 1368 1368 1369 1370 1370 1371 1371 1372 1373 1373 1374 1374 1375 1376 1377 1377 1378 1378 1378 1379 1379
1367 1366 1365 1363 1361 1360 1358 1357 1356 1356 1355 1354 1353 1352 1351 1351 1351 1350 1350 1349 1348 1347 1347 1347 1348 1348 1348 1349 1350 1351 1352 1353 1354 1356 1357 1358 1360 1361 1362 1362 1363 1364 1364 1365 1365 1366 1366 1367 1368 1368 1369 1369 1370 1370 1371 1372 1373 1373 1374 1374 1375 1375 1376
1364 1363 1361 1360 1358 1358 1357 1356 1354 1354 1353 1352 1351 1350 1349 1348 1348 1347 1347 1347 1346 1345 1345 1346 1346 1346 1347 1347 1348 1349 1350 1351 1353 1354 1355 1356 1357 1358 1359 1359 1360 1360 1361 1361 1362 1362 1363 1363 1363 1364 1364 1365 1365 1366 1367 1368 1369 1370 1370 1370 1371 1371 1373
1360 1359 1359 1358 1356 1355 1354 1353 1352 1352 1351 1350 1348 1347 1346 1346 1345 1344 1344 1344 1344 1343 1343 1344 1344 1345 1345 1346 1347 1347 1349 1350 1351 1352 1353 1354 1354 1355 1355 1356 1356 1357 1357 1358 1358 1358 1359 1359 1359 1359 1360 1360 1361 1361 1362 1363 1364 1365 1366 1367 1367 1368 1369
1357 1356 1355 1355 1353 1351 1350 1349 1349 1349 1348 1346 1344 1344 1343 1343 1342 1342 1342 1341 1341 1341 1341 1341 1342 1342 1343 1344 1345 1346 1347 1348 1348 1349 1350 1350 1350 1351 1351 1352 1353 1353 1354 1354 1354 1354 1354 1355 1355 1355 1356 1356 1357 1357 1358 1359 1360 1361 1363 1364 1364 1365 1366
1354 1352 1351 1350 1349 1348 1347 1346 1346 1345 1344 1342 1341 1341 1340 1340 1339 1339 1340 1339 1338 1338 1338 1339 1339 1340 1341 1341 1342 1343 1344 1344 1345 1345 1346 1346 1347 1347 1348 1348 1349 1349 1349 1349 1350 1350 1350 1350 1351 1351 1352 1352 1353 1354 1355 1356 1357 1358 1360 1360 1361 1362 1364
1350 1349 1348 1346 1345 1345 1344 1343 1342 1341 1340 1339 1338 1337 1337 1336 1336 1337 1337 1337 1336 1335 1336 1336 1337 1337 1338 1338 1339 1340 1341 1341 1342 1342 1343 1343 1343 1344 1344 1345 1345 1345 1345 1346 1346 1346 1346 1347 1347 1348 1348 1349 1350 1351 1352 1353 1354 1355 1357 1358 1359 1360 1361
1346 1345 1344 1343 1342 1341 1340 1339 1338 1338 1338 1337 1335 1334 1334 1333 1333 1333 1334 1334 1333 1333 1333 1333 1334 1334 1335 1336 1336 1337 1338 1338 1339 1339 1339 1340 1340 1340 1341 1341 1341 1341 1342 1342 1343 1343 1343 1344 1345 1345 1346 1346 1347 1348 1349 1350 1351 1353 1354 1355 1356 1357 1358
1342 1341 1341 1341 1340 1339 1337 1336 1336 1335 1335 1334 1333 1332 1331 1330 1330 1330 1330 1330 1330 1330 1330 1330 1330 1331 1332 1333 1333 1334 1334 1335 1335 1336 1336 1336 1337 1337 1337 1337 1338 1338 1339 1339 1340 1340 1341 1342 1342 1343 1343 1344 1344 1345 1346 1348 1349 1351 1352 1353 1354 1354 1355
Wind_Speed
29 30 31 31 32 32 32 33 33 33 33 34 35 35 35 35 35 36 36 36 36 36 36 37 38 38 37 36 38 39 39 40 40 40 41 40 41 41 40 40 40 42 43 40 37 35 33 32 30 29 29 29 30 31 32 32 32 32 32 32 32 32 33
26 27 28 29 30 31 31 32 32 32 33 35 35 35 36 36 36 37 37 37 38 37 37 37 38 38 37 36 37 38 39 40 40 41 42 42 42 42 41 41 41 42 43 42 40 38 36 34 32 30 30 29 30 30 31 32 32 32 32 33 33 34 34
23 24 25 26 28 28 29 30 31 31 33 34 35 35 36 36 37 37 38 38 38 37 37 38 39 38 37 37 38 38 38 39 39 41 42 42 42 42 42 41 41 41 42 43 41 39 38 36 34 33 32 31 31 31 32 32 33 33 33 33 34 35 35
22 23 23 25 26 27 28 29 29 30 31 32 33 34 35 36 37 37 38 38 38 37 38 38 39 38 37 37 38 39 38 38 39 40 41 42 43 43 42 42 41 42 42 42 41 40 38 37 36 36 35 35 34 34 34 34 34 34 34 35 36 37 37
22 22 22 23 24 24 26 27 27 29 30 31 31 32 33 34 36 37 37 38 38 38 38 38 39 38 37 38 39 39 39 38 38 39 40 41 42 42 42 42 42 42 42 42 43 41 39 38 37 37 36 37 36 36 36 36 36 36 36 37 38 37 37
21 22 23 23 23 24 25 25 25 27 28 29 29 30 31 32 34 35 36 37 37 37 37 38 38 38 38 39 39 39 39 39 38 39 40 41 41 42 42 43 43 43 43 44 43 42 41 40 39 37 36 36 36 35 35 36 36 36 37 37 37 36 34
20 21 22 23 24 24 25 26 26 26 26 27 27 28 30 31 32 33 35 36 37 37 37 38 38 38 39 39 40 39 39 39 39 39 40 40 40 41 42 43 44 44 44 44 44 43 42 41 39 38 36 35 34 34 35 35 35 36 36 34 34 34 32
22 22 22 23 23 24 25 26 27 27 27 27 27 27 28 29 30 32 33 35 36 36 37 37 38 38 39 39 39 39 38 38 38 39 40 40 41 42 43 44 44 45 45 44 44 43 42 40 39 38 37 35 34 35 35 34 33 35 35 33 33 33 32
21 22 23 24 24 25 26 26 27 27 28 28 28 28 29 29 30 31 32 33 34 35 36 37 37 38 38 39 39 38 38 38 38 39 40 41 41 42 43 44 45 45 45 45 44 44 42 40 39 38 37 35 34 33 32 30 30 33 34 33 34 34 32
19 20 21 22 23 24 25 26 27 27 27 28 29 29 30 31 32 32 33 34 35 35 36 36 37 37 37 37 38 38 38 38 39 41 41 41 42 42 43 44 45 45 46 46 45 44 43 41 41 39 37 35 33 31 30 30 30 32 32 31 33 34 32
20 20 21 21 22 22 23 24 25 26 27 28 28 29 30 32 33 34 35 36 37 37 37 37 37 37 37 37 38 38 38 39 40 41 42 42 43 43 43 44 45 45 45 45 45 44 43 42 41 39 35 33 31 30 29 29 29 29 30 30 32 33 32
22 22 22 23 24 24 24 24 24 25 27 28 29 30 31 33 34 35 36 37 38 39 39 39 39 38 39 39 39 38 38 38 40 41 42 43 44 44 44 45 45 44 44 43 43 43 43 42 39 37 34 32 30 29 28 27 28 28 29 29 30 32 31
24 24 24 25 26 26 26 25 25 26 27 27 28 29 30 32 34 36 38 39 40 40 40 40 40 40 41 41 40 39 38 38 39 40 42 43 44 45 45 45 44 44 42 40 38 39 40 40 37 36 34 30 28 27 27 27 28 28 28 29 30 30 28
26 26 26 26 27 27 27 26 26 27 28 29 29 28 29 30 32 34 36 38 39 40 41 41 41 41 42 42 41 40 39 38 39 40 42 43 44 45 45 44 44 43 41 40 39 39 39 38 36 34 31 28 26 26 27 27 27 27 26 28 28 28 27
26 27 27 27 27 28 28 27 26 27 28 29 30 30 30 31 31 32 33 34 35 36 38 40 41 42 42 42 41 40 39 38 37 39 41 43 44 45 45 45 45 43 42 42 42 41 39 36 33 30 28 27 25 26 26 26 25 25 25 26 27 27 28
26 27 28 29 29 29 30 28 27 27 28 29 30 30 31 32 32 33 33 33 33 33 34 36 38 40 41 41 41 39 37 36 36 37 40 42 43 44 44 45 45 43 43 42 41 39 36 32 29 27 26 26 25 26 25 22 22 23 23 24 26 28 28
27 27 27 28 29 29 30 29 27 27 28 28 29 29 31 32 32 33 34 34 33 32 32 33 34 36 39 39 39 37 35 34 34 37 39 40 42 43 44 44 44 43 42 41 39 36 33 30 27 26 26 25 24 25 22 20 22 23 23 23 26 28 28
29 28 27 27 27 28 29 30 28 27 27 28 28 28 29 30 31 33 34 34 33 33 32 32 32 33 35 36 36 35 33 32 33 35 38 40 41 42 43 44 44 43 42 40 38 34 31 29 27 26 24 22 20 21 21 23 26 26 25 27 30 31 31
29 29 28 26 26 26 26 27 28 28 27 27 26 26 27 29 30 32 33 33 33 33 32 32 32 31 32 33 32 32 31 31 31 33 36 38 40 42 43 43 42 41 41 39 36 33 31 28 26 23 22 21 21 23 25 27 29 28 27 30 32 32 31
27 29 28 25 25 24 23 23 26 27 25 23 24 24 24 26 28 29 30 31 31 32 32 32 31 30 29 29 29 29 30 30 29 30 33 37 40 41 40 40 39 39 38 36 33 31 28 26 24 23 23 24 25 27 28 30 32 32 31 31 32 32 32
26 25 24 24 23 21 20 20 22 24 22 19 20 20 21 23 26 27 27 29 30 30 31 31 30 28 27 27 27 27 27 28 28 27 30 34 37 37 36 36 37 36 34 32 29 27 26 25 25 26 26 26 26 27 28 30 33 35 36 35 35 35 35
22 20 22 24 22 19 19 19 18 19 21 20 19 18 18 20 22 24 24 26 28 29 29 29 29 28 26 26 26 25 25 24 24 26 29 30 31 32 34 35 33 31 29 27 26 26 26 27 27 27 27 27 27 26 25 25 27 30 34 38 40 40 39
19 18 21 23 20 18 18 18 15 16 19 20 19 18 17 18 20 21 22 24 26 28 28 28 28 28 26 25 24 24 24 23 23 26 30 30 28 29 30 30 28 26 25 25 25 27 28 28 27 27 27 27 27 25 22 21 21 22 25 29 34 36 37
18 19 21 22 22 21 20 19 18 18 18 17 17 17 17 17 18 19 21 23 25 26 26 26 26 25 23 23 22 22 24 27 27 27 29 29 28 27 26 24 24 25 24 25 26 27 28 27 27 27 27 27 25 23 21 20 20 21 21 22 24 26 26
19 21 22 22 24 24 23 22 21 20 18 16 15 16 17 17 17 18 19 21 23 24 24 23 22 20 19 19 19 19 22 26 26 24 25 26 26 26 25 24 24 24 25 25 25 26 27 28 28 28 27 25 24 23 22 22 22 22 22 22 22 22 22
19 20 20 19 20 21 22 22 22 21 20 18 17 16 16 17 17 17 18 19 20 20 19 18 17 16 16 16 17 18 20 23 23 22 23 23 23 24 25 25 25 25 24 24 24 26 27 28 28 27 26 24 24 24 24 23 23 24 24 24 24 24 23
20 20 19 18 20 21 22 21 21 21 21 21 20 18 17 17 17 16 17 18 18 18 17 15 14 14 15 16 17 18 20 22 23 24 25 24 23 24 24 23 23 23 23 24 26 27 27 27 27 27 26 25 25 25 25 24 23 24 25 25 25 25 24
20 21 19 20 23 25 24 23 22 22 22 20 19 18 19 18 17 17 17 18 18 17 16 15 14 14 16 17 18 19 20 23 24 25 26 26 25 25 24 24 24 25 26 27 27 27 27 27 27 27 27 26 26 26 26 25 24 24 24 24 25 26 25
20 20 19 21 24 25 24 23 22 21 21 19 17 16 18 18 17 17 18 18 17 16 14 13 14 15 16 17 19 19 20 22 23 23 23 24 24 25 25 25 26 26 27 27 27 28 28 28 28 28 28 28 28 27 26 24 23 23 23 24 25 26 25
19 20 20 22 24 22 20 21 20 19 19 18 17 16 16 17 17 18 18 17 16 16 15 14 14 16 17 17 18 19 20 20 21 22 22 23 23 23 24 24 24 25 25 25 26 27 28 28 29 29 29 29 29 27 25 23 23 23 24 24 25 25 24
19 19 18 18 19 18 17 18 18 17 17 17 18 17 15 14 15 16 17 17 17 17 16 15 16 17 18 19 19 19 19 20 20 21 21 22 22 22 22 22 22 23 23 24 25 25 26 28 29 29 29 29 28 27 24 22 22 23 24 25 25 25 23
17 15 13 13 15 16 15 15 14 15 15 17 18 18 15 15 14 12 13 15 18 18 17 16 16 17 18 19 19 19 19 19 19 19 19 19 20 20 20 20 20 21 21 22 23 24 26 28 29 29 28 27 25 24 22 20 21 23 24 25 25 24 23
14 13 14 16 17 16 16 15 14 15 17 19 20 19 18 17 17 14 11 12 16 19 19 17 17 18 18 18 18 18 17 18 18 18 18 18 19 20 20 20 20 20 21 22 22 24 25 26 27 26 25 24 23 21 19 18 19 21 23 24 24 24 23
14 14 15 16 16 16 16 16 16 17 18 20 21 22 21 20 19 18 16 13 14 17 19 19 19 18 18 18 18 17 17 17 17 18 18 19 19 20 20 20 20 20 21 21 22 23 23 23 23 23 22 22 21 19 18 18 20 21 23 24 24 23 23
19 17 15 15 16 16 15 15 16 15 14 16 19 21 21 21 20 20 20 19 17 15 16 18 20 20 20 20 19 18 17 17 17 17 18 18 18 18 19 19 19 19 19 20 20 20 19 18 18 18 18 20 20 19 18 19 21 22 23 23 24 24 23
21 20 17 15 14 15 15 16 15 13 12 14 17 18 18 18 18 17 18 20 21 19 18 18 19 20 21 22 21 20 19 18 17 17 17 17 17 17 17 17 17 17 17 17 17 16 15 13 13 13 14 16 19 19 18 19 20 21 22 23 24 24 23
Wind_Direction
273 273 273 273 272 272 272 271 271 271 270 270 270 269 269 269 268 267 268 268 268 268 268 269 269 270 270 271 270 270 269 269 267 266 264 263 262 262 262 261 260 261 264 264 261 260 259 258 257 254 251 248 246 245 246 247 248 251 253 256 259 263 267
273 273 273 273 273 272 272 272 272 271 271 270 270 270 270 269 269 269 269 269 269 269 269 270 270 271 271 270 270 270 270 270 269 267 266 264 263 263 263 262 260 261 262 262 260 259 257 256 254 252 250 247 244 244 245 247 249 250 253 256 260 263 266
270 271 272 272 273 273 273 273 272 272 271 270 270 270 270 270 270 269 269 269 269 270 270 270 271 271 271 271 270 270 270 270 270 269 268 267 266 265 264 263 261 260 261 261 261 258 256 255 253 251 249 247 245 244 245 247 249 252 255 258 261 264 267
261 263 266 269 271 272 273 273 274 274 273 272 272 272 271 271 270 269 269 269 270 270 270 270 271 272 272 272 271 271 271 270 269 269 269 269 268 267 266 265 263 262 261 260 260 258 256 254 252 250 248 247 246 245 246 247 249 252 256 259 263 266 268
256 257 258 261 264 267 270 272 273 274 274 274 274 274 273 272 271 270 270 270 271 270 270 270 271 272 272 272 271 271 271 270 269 269 269 269 269 268 267 266 264 263 261 259 259 258 257 254 251 249 249 249 248 248 249 250 252 255 258 261 263 266 268
258 258 259 259 260 261 263 265 268 270 272 273 274 274 274 273 272 272 272 271 271 270 270 270 271 271 271 270 270 271 271 271 270 269 269 269 269 269 268 266 264 262 260 259 259 258 256 254 253 251 250 250 249 249 250 252 254 257 258 261 263 265 268
262 262 263 263 263 263 262 262 262 263 266 268 270 272 272 272 272 272 272 272 271 271 270 270 271 271 270 269 270 271 271 271 271 270 269 269 268 268 266 264 263 261 259 258 257 256 255 254 254 253 252 250 250 251 253 255 258 260 262 265 267 269 270
266 265 266 266 267 266 266 265 264 263 263 264 265 266 268 269 270 270 271 271 271 271 271 271 271 270 270 270 271 271 271 271 270 270 269 268 267 266 264 263 261 259 258 256 255 254 254 253 253 253 252 252 253 255 259 262 265 268 270 271 271 272 274
271 270 268 267 267 267 267 267 267 266 265 264 262 262 262 263 264 266 267 268 269 270 270 270 270 270 270 271 272 272 271 270 270 269 268 267 266 264 263 261 260 258 257 255 253 253 252 252 252 251 252 254 257 261 265 267 268 269 272 274 274 275 275
274 274 273 270 268 268 267 267 267 267 266 265 264 262 261 260 260 261 262 264 265 266 267 268 268 269 270 271 271 271 270 269 269 268 268 267 266 265 263 260 258 257 256 254 253 253 252 252 252 252 254 259 262 265 267 268 268 270 273 274 275 275 274
276 276 276 275 273 271 270 269 268 268 267 266 265 264 263 262 262 262 262 262 263 263 264 265 265 266 268 268 269 269 269 269 268 268 267 266 265 264 263 261 259 257 256 255 254 253 253 251 252 255 258 261 263 264 266 268 271 272 272 272 273 274 274
279 277 277 276 275 274 273 272 272 271 269 267 265 264 264 264 264 263 263 263 263 263 263 263 263 264 265 265 266 266 267 267 268 268 266 265 264 263 263 261 260 259 257 255 254 254 253 252 254 258 260 261 263 266 269 270 270 271 272 272 272 273 274
281 279 278 277 275 274 273 272 272 272 272 271 270 268 266 265 265 264 264 264 264 264 264 264 263 263 263 264 264 264 265 265 266 267 265 263 261 260 259 258 258 257 256 255 254 253 252 252 255 258 259 261 264 268 270 270 271 273 274 274 274 275 277
283 281 280 278 276 275 273 272 272 272 272 272 272 272 270 269 267 266 265 265 264 264 264 264 264 263 263 263 263 263 263 264 265 265 263 260 258 257 255 253 252 251 250 249 248 249 250 252 255 257 259 262 265 268 270 272 274 276 275 274 275 275 273
287 285 283 280 278 277 275 273 273 272 272 272 271 271 271 270 270 269 268 267 266 265 264 263 263 264 264 264 264 263 263 263 264 264 263 260 257 255 253 251 250 248 247 246 247 248 251 254 255 257 260 263 266 269 272 275 276 275 272 270 269 268 266
287 286 285 283 281 279 277 275 274 272 272 272 272 271 270 270 270 270 269 269 269 269 267 265 263 263 264 265 265 265 264 264 263 263 261 258 256 254 251 250 249 247 245 245 247 250 252 254 255 256 259 263 267 270 273 275 273 269 267 265 265 265 265
290 287 286 284 282 281 279 277 276 273 271 270 272 272 271 270 270 270 269 269 270 271 271 268 265 263 262 264 265 265 266 265 263 261 258 256 253 251 249 248 246 243 242 244 246 249 251 252 252 255 260 266 271 274 276 273 267 265 265 265 266 266 268
294 291 288 286 284 282 280 279 278 275 273 271 271 272 271 271 270 269 269 269 269 270 271 270 267 264 262 262 264 265 266 265 264 261 257 253 250 247 246 247 244 241 241 242 244 247 248 249 251 256 262 267 266 266 268 269 270 271 269 267 267 269 272
297 294 292 290 287 284 283 283 283 281 279 276 274 273 272 272 271 270 269 269 269 269 269 270 268 265 262 261 263 265 264 262 262 261 257 252 248 245 246 247 246 244 243 242 243 246 247 248 253 258 261 260 254 250 251 256 263 268 266 265 266 268 270
296 295 295 295 291 287 285 285 286 288 287 282 277 274 273 272 272 272 271 270 270 269 268 269 268 266 262 260 261 263 263 260 260 264 260 252 247 246 248 249 248 247 245 243 244 245 246 248 252 255 257 258 257 254 251 248 250 255 258 261 263 263 264
296 300 304 302 297 293 291 290 291 295 295 287 277 274 275 274 272 272 273 271 270 269 270 270 270 268 265 262 262 264 263 258 256 260 259 253 250 252 252 250 248 246 244 243 243 241 241 245 250 254 259 262 264 263 259 253 249 249 251 254 257 259 261
298 305 306 302 300 299 296 295 298 302 300 294 285 276 275 277 275 273 273 271 268 267 268 270 271 270 267 266 265 264 263 261 257 255 255 254 252 251 249 247 246 246 244 241 237 237 241 247 253 259 265 269 271 270 266 262 259 255 254 254 255 258 261
303 300 295 296 299 295 289 287 289 291 292 295 294 284 277 277 277 274 272 270 267 266 266 266 267 268 266 264 263 261 260 260 258 252 250 251 250 247 245 244 243 240 236 234 236 240 247 253 259 265 270 273 275 274 270 269 269 266 261 257 256 257 260
299 295 291 292 291 288 285 283 280 279 281 287 293 291 287 285 283 278 274 271 268 267 267 267 266 266 265 260 258 258 257 257 254 246 240 242 245 245 241 237 234 233 233 236 241 247 254 261 266 270 274 277 276 272 267 265 266 265 262 257 256 256 258
294 294 294 293 292 291 291 287 280 277 280 283 283 283 287 292 292 287 279 274 271 268 269 270 269 267 264 255 252 256 256 252 248 239 232 232 237 238 236 231 228 230 232 236 243 251 260 267 271 273 276 278 273 265 258 255 256 258 257 255 254 256 258
302 302 301 302 307 307 304 299 291 283 277 277 278 279 282 289 294 293 287 283 279 274 270 270 270 268 261 250 247 250 246 236 228 224 224 224 222 222 222 220 219 221 228 237 249 260 267 271 274 275 275 272 266 262 258 254 253 253 252 252 253 255 258
312 311 310 314 317 313 308 305 304 298 288 279 276 276 278 284 288 291 292 292 289 282 276 274 272 268 257 244 241 240 234 224 218 217 219 220 216 213 214 218 224 232 244 255 262 268 270 271 271 270 268 266 265 264 263 259 256 253 251 251 251 252 254
308 307 309 312 309 305 301 300 305 313 311 299 288 281 280 281 280 281 289 295 293 287 283 280 275 269 257 244 238 235 229 223 219 219 220 223 224 226 230 238 246 254 260 264 266 267 266 265 264 263 264 264 264 266 266 262 258 254 253 251 250 251 252
300 300 300 298 294 295 298 300 307 317 318 312 307 301 291 283 275 274 284 293 291 286 284 278 270 265 257 245 237 234 231 228 226 226 228 232 235 239 245 250 256 260 263 264 265 264 263 262 261 262 262 262 264 266 265 260 254 252 252 251 251 252 253
288 284 281 283 287 291 295 295 297 306 313 312 309 303 293 285 281 279 283 287 285 281 276 269 261 256 252 245 237 234 233 233 233 234 238 242 246 249 253 256 257 259 261 262 261 261 261 261 261 262 263 264 266 267 262 255 251 250 251 252 253 253 252
283 281 283 290 295 297 297 294 290 298 309 305 293 286 283 278 278 281 283 281 279 276 271 263 257 251 246 243 241 239 239 239 241 243 246 250 253 254 255 255 257 258 260 261 260 260 259 259 260 262 264 265 267 265 260 253 249 248 249 250 251 251 251
289 289 290 291 285 282 288 297 297 298 299 290 279 274 270 262 259 267 278 279 275 272 269 262 256 251 247 245 244 245 246 248 250 253 254 255 256 257 257 259 261 263 262 260 258 257 256 257 259 261 262 263 262 260 255 249 248 249 248 247 247 248 250
288 284 281 278 275 274 281 288 288 283 280 278 274 270 265 258 252 251 259 273 275 273 272 269 264 260 258 257 256 257 258 259 259 260 259 259 259 260 262 263 263 261 259 256 253 251 251 253 255 256 256 255 253 250 246 245 248 248 245 244 245 246 248
295 293 290 286 282 280 279 278 276 275 276 278 277 274 269 265 258 250 247 257 271 275 275 274 272 269 266 264 265 266 266 265 265 264 263 262 262 263 263 263 260 258 256 252 249 247 248 250 251 251 251 249 246 243 242 244 245 244 242 241 242 245 250
304 303 299 293 288 285 282 278 277 280 286 288 286 282 277 273 268 258 250 248 253 262 268 269 269 269 269 270 271 272 271 271 270 269 268 267 266 264 263 261 258 255 251 248 246 246 247 248 251 252 254 252 245 240 241 242 240 238 239 241 244 251 260
304 304 302 298 292 286 282 279 276 277 284 287 286 286 285 284 280 273 261 250 246 247 252 256 259 262 265 269 272 274 274 274 273 272 273 272 269 266 263 260 254 248 244 242 241 242 242 244 249 254 259 256 246 238 239 242 240 240 243 248 253 260 265